Dewpoint
38 34 32 33 30 26 22 23 22 22 23 21 22 24 27 28 30 31 30 30 31 33 36 41 44 44 43 43 43 42 42 41 42 45 47 47 47 47 47 41 38 36 35 35
35 32 34 32 28 23 22 23 22 22 22 22 19 20 23 24 27 28 28 28 29 31 35 40 43 43 43 42 42 42 42 41 41 43 45 47 47 47 47 44 37 36 34 33
32 34 36 29 24 21 21 23 22 21 20 21 21 19 20 21 22 23 25 26 27 28 31 36 41 42 43 42 42 42 42 42 41 42 44 47 47 47 46 43 41 38 34 32
34 36 32 26 23 21 18 21 22 20 19 18 17 17 16 20 21 21 21 22 23 24 27 31 37 41 42 42 42 42 43 43 42 42 42 42 43 43 45 45 42 39 34 31
32 33 30 25 25 23 20 24 21 17 15 16 16 8 9 17 19 21 21 21 20 21 22 23 29 36 42 43 43 43 43 44 42 41 41 40 40 42 44 43 41 41 37 35
35 36 32 28 27 25 21 18 17 17 15 8 15 10 3 12 17 19 20 21 22 21 21 27 29 30 37 43 43 43 43 43 43 41 40 39 39 39 39 39 39 39 38 37
33 29 31 29 24 25 19 17 12 9 7 6 20 10 6 9 27 26 24 25 23 27 32 36 39 40 41 41 43 43 43 43 43 42 41 40 38 38 38 38 38 38 38 36
28 25 28 31 25 22 19 16 10 4 5 8 20 8 6 16 33 33 31 32 35 36 37 38 39 40 42 42 43 43 43 43 43 43 43 42 40 39 38 37 37 37 37 37
22 25 30 31 30 25 22 18 17 14 17 10 15 16 17 25 32 33 34 35 35 36 37 39 40 40 40 41 41 42 43 43 43 43 43 43 42 40 39 38 37 37 37 36
23 24 29 28 28 26 22 23 17 17 6 0 11 13 8 22 29 33 34 34 36 37 37 37 33 29 27 29 32 37 41 42 42 43 43 43 43 42 41 39 38 37 36 35
25 23 25 26 24 21 23 20 21 20 17 4 5 7 19 21 29 31 33 34 35 36 34 26 25 26 28 29 30 32 35 37 39 41 42 42 42 42 42 40 39 38 36 35
28 23 20 23 30 31 27 19 17 11 12 18 11 8 24 28 28 31 32 33 33 33 25 24 25 26 27 28 28 30 32 33 35 38 39 40 40 40 40 40 40 40 38 37
27 20 18 17 19 26 24 26 20 18 20 16 10 7 27 29 29 31 32 29 30 26 23 23 24 24 26 27 27 29 32 34 35 34 34 33 34 34 35 36 37 38 38 38
28 21 16 15 15 21 20 24 22 19 12 10 13 10 22 28 29 31 29 24 24 22 23 23 24 25 26 27 28 30 31 32 32 31 31 31 32 33 34 35 36 36 37 37
28 22 21 20 24 24 21 20 24 19 16 10 8 12 14 27 29 29 26 21 19 21 22 23 24 26 26 27 29 30 30 30 31 30 31 32 33 34 34 34 34 34 34 34
25 22 21 20 19 18 19 21 22 24 22 18 18 16 19 22 29 26 23 19 19 21 22 23 25 27 26 27 29 30 29 30 31 31 31 32 32 32 32 33 33 32 32 32
23 21 21 16 17 14 11 14 20 23 24 20 15 16 20 22 28 26 23 19 19 20 22 24 26 27 27 28 29 29 29 30 30 30 30 29 30 29 30 30 30 28 29 30
20 17 17 9 7 6 10 14 16 21 23 24 22 22 21 21 26 26 22 20 19 20 23 25 27 27 29 29 29 30 30 29 27 25 25 26 27 26 27 27 25 26 27 28
22 18 13 6 5 5 4 9 13 12 6 19 24 24 24 23 23 23 21 21 21 23 26 27 28 29 29 29 29 28 25 24 21 22 23 24 25 24 24 23 24 26 27 27
22 17 13 12 3 -3 -7 12 17 15 0 9 20 25 23 22 21 23 23 24 26 28 29 29 29 29 28 28 27 22 19 18 17 21 23 25 25 24 23 24 25 27 27 27
21 20 17 13 7 6 5 16 17 -2 -5 14 23 26 23 22 24 23 26 27 29 29 29 29 29 27 26 26 24 18 18 14 20 23 24 23 23 23 24 25 26 27 27 28
18 15 15 14 8 -1 14 18 8 8 16 21 23 24 22 21 23 25 27 28 28 29 29 28 26 24 24 23 20 15 12 17 21 22 22 21 22 23 24 26 26 26 27 27
10 10 7 12 6 7 18 17 17 19 19 21 23 23 22 23 24 26 27 27 27 27 26 25 22 19 18 19 19 13 13 19 21 21 20 21 23 24 25 25 25 25 26 27
19 18 12 15 15 16 16 20 21 22 22 22 22 23 22 22 25 26 26 26 25 24 22 21 17 14 12 15 17 18 18 19 20 19 20 22 23 25 25 25 25 25 25 25
16 20 18 17 18 20 21 22 23 23 23 22 22 22 22 23 25 26 25 24 22 22 21 19 15 14 13 16 17 18 18 19 19 20 21 21 23 23 24 24 25 26 27 28
20 18 17 14 18 16 18 21 24 23 23 23 22 22 23 24 25 25 23 22 21 20 19 15 15 16 16 17 18 18 19 19 20 20 21 22 24 24 25 25 25 26 27 28
Wind_Speed
3 5 7 11 14 9 14 15 14 3 2 6 7 14 15 13 11 16 15 15 15 16 9 11 12 11 11 9 9 9 7 5 3 1 1 1 2 1 0 0 1 2 4 5
5 9 7 16 10 12 9 22 12 4 4 6 7 9 8 11 9 13 16 15 15 10 10 11 13 13 14 13 11 9 7 6 4 2 1 2 2 0 1 1 1 1 2 3
4 3 9 14 15 14 6 19 13 14 8 10 7 4 8 8 7 8 12 9 12 16 15 12 14 16 13 14 14 12 9 7 5 5 3 2 1 0 1 2 2 1 1 1
1 7 5 7 12 10 13 4 16 20 11 11 3 10 7 8 15 14 14 16 15 15 12 13 15 15 18 17 12 11 9 8 7 6 6 4 2 3 2 1 1 1 1 1
2 5 5 4 4 3 5 6 10 11 11 8 1 3 4 3 12 21 21 18 16 15 12 14 16 16 15 14 15 12 9 8 6 8 7 4 5 5 3 4 4 4 3 3
2 0 3 2 5 5 16 12 11 9 5 3 1 2 4 9 13 7 9 12 13 11 9 7 6 7 9 11 12 11 10 9 8 9 7 6 7 6 5 5 6 5 4 5
4 3 3 2 10 4 5 7 6 4 4 5 3 4 6 3 2 2 5 6 7 11 10 7 6 6 6 9 11 10 10 10 10 9 8 8 8 7 8 8 7 7 6 5
4 5 6 8 2 7 5 3 7 9 10 6 2 9 4 2 1 3 6 9 10 11 9 9 8 7 6 6 8 8 8 10 9 8 9 7 8 8 9 9 7 8 8 9
5 4 3 2 1 1 5 1 4 9 3 6 4 6 9 4 3 6 10 9 10 9 9 9 8 7 6 4 2 5 8 9 7 8 8 9 8 9 10 9 8 9 10 10
6 7 2 0 1 9 3 8 2 2 9 6 3 5 7 14 14 10 11 11 9 8 9 9 8 7 6 5 3 1 3 6 6 6 6 7 7 7 8 8 11 11 12 11
3 3 2 2 3 4 4 3 5 4 2 5 9 7 5 9 19 19 14 12 12 12 11 10 8 6 5 5 6 8 9 6 4 3 4 5 6 6 7 8 9 10 10 11
1 4 6 2 1 1 1 3 4 2 1 2 1 2 2 6 13 16 15 13 11 12 12 9 8 7 6 6 8 8 7 6 6 5 4 4 5 5 5 6 8 8 10 10
2 3 8 3 0 1 3 3 4 6 3 1 2 1 2 2 13 11 14 12 12 13 11 9 7 6 4 5 5 5 6 6 6 6 6 5 5 5 6 6 7 8 8 9
2 3 4 10 3 4 4 5 5 4 3 3 5 2 5 8 13 12 13 13 15 14 12 9 6 4 3 3 4 4 4 5 5 5 5 5 6 6 7 7 7 8 8 10
2 1 2 2 3 2 2 5 11 12 5 8 3 6 4 16 19 19 17 15 14 14 13 10 7 4 2 3 3 3 3 5 5 5 5 6 6 6 6 8 9 10 10 10
2 2 3 3 0 1 4 7 8 11 5 9 6 14 12 4 12 16 19 19 18 16 13 11 6 4 2 2 1 2 4 4 4 4 5 5 7 9 9 9 10 10 10 10
1 5 3 2 2 2 8 16 18 9 10 11 16 20 10 10 21 25 23 22 20 17 16 11 7 6 4 2 1 1 1 2 3 4 5 7 8 9 10 10 11 13 14 13
5 4 1 0 2 5 3 2 5 16 9 21 9 5 13 10 9 9 13 21 19 15 12 9 8 6 5 4 3 1 1 2 3 4 6 7 8 11 12 12 13 14 13 15
3 5 3 2 5 7 1 4 6 7 4 12 27 15 6 4 4 4 12 12 14 11 10 10 9 7 6 5 2 2 2 2 3 5 6 9 10 12 13 15 16 15 13 16
6 7 3 3 3 4 1 2 4 3 4 1 7 15 15 11 12 7 14 11 12 13 12 12 9 7 7 4 2 2 1 1 4 6 8 9 10 11 14 14 15 12 14 15
2 2 6 4 3 9 7 3 5 4 1 6 3 7 16 14 5 2 17 12 12 11 11 9 9 9 6 4 3 1 1 3 5 6 8 9 9 11 11 12 12 14 16 15
9 9 6 4 4 7 8 6 6 2 2 3 1 5 12 8 8 13 13 14 13 13 11 9 10 8 4 3 1 1 4 4 6 8 10 11 12 11 11 11 14 15 15 14
5 7 3 12 7 3 9 3 3 2 2 2 2 6 13 12 8 12 12 12 12 12 11 8 8 6 3 1 1 4 6 8 10 11 13 13 14 13 12 13 15 14 13 13
5 6 5 2 3 15 17 10 8 5 3 1 3 9 13 11 14 11 13 12 12 10 10 7 6 4 2 2 3 6 10 10 10 13 14 14 13 14 14 12 12 11 14 15
4 10 6 8 14 10 11 9 5 9 6 6 6 8 12 14 13 14 12 12 11 10 7 5 3 1 4 5 6 8 10 9 11 12 14 15 13 15 16 14 14 14 15 15
11 10 10 7 4 2 2 0 2 9 9 9 9 7 6 8 14 12 13 10 9 8 5 3 1 3 6 8 9 10 9 8 11 14 14 14 14 15 14 15 17 15 20 22
Wind_Direction
42 133 224 219 203 164 146 138 128 85 24 111 137 153 166 173 180 182 189 189 193 200 206 193 186 177 180 182 182 187 177 179 158 143 183 192 250 256 67 98 52 43 46 45
94 225 281 266 184 148 145 140 130 104 38 118 133 134 180 189 202 198 193 199 203 197 196 193 185 190 193 191 197 196 198 191 191 177 166 208 201 155 275 240 221 86 71 56
125 210 258 189 153 156 162 154 160 140 109 67 127 115 173 215 229 214 218 211 211 209 203 199 198 204 199 204 203 204 203 201 198 177 164 193 126 39 265 242 245 225 90 56
308 313 77 144 142 162 182 202 147 140 143 153 350 194 213 201 213 224 230 226 223 219 215 212 208 210 209 213 205 205 203 202 202 182 207 207 221 253 225 257 261 303 241 254
50 58 2 74 103 142 145 131 132 111 111 129 179 124 190 181 216 223 226 226 227 224 215 217 219 219 215 206 207 202 203 208 198 205 215 207 237 248 270 266 284 274 266 259
42 165 308 61 45 116 130 111 75 65 86 149 248 125 200 184 212 217 219 216 218 201 200 210 215 212 215 205 201 197 204 216 212 215 213 226 245 260 269 277 279 281 274 265
18 90 304 53 90 36 126 132 116 103 159 182 332 184 242 203 203 210 208 184 166 162 156 145 146 157 168 182 193 199 208 228 225 222 226 233 245 254 265 269 267 272 272 263
115 111 10 349 80 152 120 78 161 156 163 162 4 217 232 189 96 125 120 137 138 138 138 128 119 117 130 159 187 202 221 240 232 232 246 245 244 248 254 257 262 265 264 264
118 66 313 14 16 132 162 273 145 108 53 144 199 272 275 204 148 130 136 139 145 140 129 121 111 101 107 119 163 217 232 245 248 248 251 253 250 248 260 268 261 261 259 258
178 108 4 70 16 45 129 138 142 71 156 171 213 252 219 201 187 173 168 165 154 135 128 118 108 102 84 76 58 37 254 270 279 276 267 269 267 260 262 263 262 260 266 262
143 122 186 156 30 153 130 166 72 107 98 152 148 233 208 212 192 182 182 177 163 152 143 134 121 106 98 86 70 60 48 34 3 300 275 273 275 274 274 275 281 279 283 275
67 104 111 106 8 12 91 151 138 49 204 72 128 200 294 247 205 187 180 172 161 155 151 144 133 122 100 75 54 47 40 39 26 19 19 3 351 341 317 301 301 298 285 283
165 55 117 125 55 337 222 161 125 112 114 211 140 337 351 124 160 181 175 167 164 159 157 153 141 124 99 62 44 36 36 33 27 28 33 30 16 360 346 332 322 316 309 301
35 108 169 190 174 142 180 190 174 148 189 176 240 285 220 187 179 175 174 173 172 172 172 169 157 143 86 52 38 37 37 22 15 23 29 25 11 359 349 339 331 323 319 308
15 156 125 150 129 161 207 200 191 203 192 207 249 219 251 203 193 188 183 176 175 184 188 184 180 161 104 69 59 35 17 10 15 31 36 22 4 355 349 347 341 334 326 317
11 201 152 180 79 110 252 234 217 222 222 243 250 271 226 200 178 187 190 183 190 195 195 193 181 154 137 147 53 15 16 25 27 42 28 2 356 351 347 339 332 326 322 317
152 150 152 230 3 314 277 234 206 202 200 188 219 236 173 193 198 200 196 191 193 195 195 189 183 173 168 153 144 97 51 30 47 31 9 358 349 341 339 334 331 329 327 323
141 121 79 190 97 230 247 122 201 215 233 217 245 201 200 207 209 198 190 189 196 192 182 173 167 164 166 165 157 145 108 47 38 22 1 352 345 339 335 332 332 330 326 325
30 137 115 198 223 294 282 213 180 181 270 234 235 231 209 163 127 234 190 193 186 173 165 167 168 164 157 151 134 112 82 51 34 6 346 343 343 333 331 331 330 327 324 323
65 70 146 155 244 241 247 196 187 159 269 296 243 231 193 160 208 225 174 149 142 145 155 161 155 145 142 134 125 122 107 17 356 341 333 329 323 321 322 320 322 320 316 308
126 84 205 195 268 282 240 165 153 166 249 325 282 220 177 186 208 150 145 137 146 149 149 138 143 146 145 154 169 175 316 328 318 317 311 310 314 314 313 315 316 318 314 308
185 175 190 153 216 275 168 129 184 199 317 309 333 173 164 130 118 134 137 142 144 140 138 145 142 142 151 167 172 308 307 312 318 320 318 318 322 321 316 311 307 310 309 308
222 197 196 200 224 255 203 216 193 174 294 329 192 165 156 142 142 145 146 145 147 147 141 134 142 147 162 171 247 311 312 326 323 317 315 317 318 314 311 312 312 312 309 308
231 194 234 302 252 249 247 246 238 204 240 209 161 160 167 157 158 152 149 149 145 144 143 142 142 147 176 292 316 290 299 301 305 308 306 304 305 310 308 305 302 307 311 311
214 164 212 254 274 265 257 239 243 223 198 170 149 164 172 160 163 158 155 152 149 145 139 136 128 18 314 314 306 298 295 295 292 293 295 300 302 306 308 305 300 298 289 285
191 190 188 239 218 169 171 207 240 196 196 182 157 140 135 157 154 152 149 149 146 142 129 127 217 268 298 309 311 307 303 286 285 294 299 299 295 296 297 298 298 287 284 289